Showing default

GLOBALSTAR M082, 38042

Orbit data source: Space-Track

GLOBALSTAR M082, 38042 is a payload satellite owned by Globalstar (US) in LEO that was launched on Wed, 28 Dec 2011 UTC via a SOYUZ-2-1A launch vehicle from the Tyuratam Missile And Space Complex (TTMTR). Payload-class satellites include a variety of spacecraft equipped with specific instruments for various scientific and technological missions. These include communications satellites like Starlink; space stations such as the ISS; scientific satellites like the Hubble; Earth observation satellites from companies like Planet Labs, Umbra, and HawkEye 360; GPS; miniature CubeSats for education and research; and military/defense satellites.

Loading next visibility...
Identifier
38042, 2011-080C
Orbit
LEO
Country
Flag of UnknownUnknown / GLOB
Related business
Manufacturer
Thales Alenia
Mission
Operational Commercial Communications
Bus & Motor
PRISMA?, LS-400 AOCS?
Mass
715 kg wet, ~500 kg dry
Launch date (UTC)
2011-12-28 (14 years ago)
Launch vehicle
SOYUZ-2-1A
Launch site
Tyuratam Missile And Space Complex (TTMTR)
Object type
Payload
Rocket body
Debris
Shape & HBR
Trap Cyl + 2 Pan, 6.0 m
Radar Cross Section
20.931 m², Large (>1 m²)

Expand to show TLE details & history
Last TLE update: 1 day ago

TLE from 1 day ago
0 GLOBALSTAR M082
1 38042U 11080C   25260.70773883 -.00000092  00000-0  66924-4 0  9998
2 38042  52.0066  83.9018 0001115  69.8057  10.6341 12.62268683635182
Epoch: 2025-09-17T16:59Z
TLE epoch observation values (Epoch: 2025-09-17T16:59:08.634Z)
Latitude
51.13612°
Longitude
-93.0781°
Altitude
1,418.838 km
Speed
7.157 km/s
True Right ascension
10h 34m 21s
True Declination
50° 58' 56"
Sunlit
Object was in daylight at epoch
Visualization orbit readout
Latitude
Unknown
Longitude
Unknown
Altitude
Unknown
Speed
Unknown
Apparent Right ascension
Unknown
Apparent Declination
Unknown
Sunlit
N/A
Visualization observer readout
Local Sidereal Time
17:16:39
Azimuth
Unknown
Elevation
Unknown
Doppler factor
Unknown
Orbital elements
Apogee altitude
1,414.855 km
Perigee altitude
1,413.117 km
Semi-major axis
7,792.123 km
Eccentricity
0.00011
Inclination
52.0066°
RAAN
83.9018°
Arg. of periapsis
69.8057°
True anomaly
10.63646°
Mean anomaly
10.6341°
Eccentric anomaly
10.63528°
Mean motion
3.15544 °/min
Orbital period
114.09 mins
BSTAR
0.000066924
Loading maneuver chart data...
Computing Atmospheric mass density...
Loading historical data...
Loading historical data...
Loading historical data...
Loading historical data...
Loading historical data...
Loading historical data...
Loading historical data...

Documentation

Showing up to 5 results
|